Regional Weather Roundup
Issued by NWS

Home | Current Version | Previous Version | Text Only | Print | Product List | Glossary On
Versions: 1 2 3 4 5 6 7 8 9 10 11 12 13 14 15 16 17 18 19 20 21 22 23 24 25 26 27 28 29 30 31 32 33 34 35 36 37 38 39 40 41 42 43 44 45 46 47 48 49 50
000
ASUS43 KBIS 201902
RWRND

NORTH DAKOTA REGIONAL WEATHER ROUNDUP
NATIONAL WEATHER SERVICE BISMARCK ND
200 PM CDT SUN AUG 20 2017

NOTE: "FAIR" INDICATES FEW OR NO CLOUDS BELOW 12,000 FEET WITH NO
SIGNIFICANT WEATHER AND/OR OBSTRUCTIONS TO VISIBILITY.


NDZ001>003-009>011-017-202000-
NORTHWEST NORTH DAKOTA

CITY           SKY/WX    TMP DP  RH WIND       PRES   REMARKS
WILLISTON      SUNNY     74  33  22 VRB5      30.05F
MINOT          SUNNY     74  40  29 CALM      30.04F
MINOT AFB      SUNNY     73  35  25 NW14      30.02F
$$

NDZ018>021-031>035-040>046-202000-
SOUTHWEST NORTH DAKOTA

CITY           SKY/WX    TMP DP  RH WIND       PRES   REMARKS
BISMARCK       CLOUDY    71  45  39 N9        30.07F
DICKINSON      CLOUDY    68  39  34 SE9       30.06F
GARRISON         N/A     70  47  43 S7G16     30.05F
HETTINGER ARPT MOSUNNY   70  45  40 VRB7      30.10S
$$

NDZ004>008-012>016-024-026-027-054-202000-
NORTHEAST NORTH DAKOTA

CITY           SKY/WX    TMP DP  RH WIND       PRES   REMARKS
GRAND FORKS    MOSUNNY   78  47  33 NW13G23   29.96F
GRND FRKS AFB  SUNNY     76  46  33 N9        29.98S
DEVILS LAKE    PTSUNNY   71  43  36 N15G21    30.03S
$$

NDZ022-023-025-028>030-036>039-047>053-202000-
SOUTHEAST NORTH DAKOTA

CITY           SKY/WX    TMP DP  RH WIND       PRES   REMARKS
FARGO          CLOUDY    74  51  44 NW13      29.97S
JAMESTOWN      CLOUDY    71  51  49 N9        30.03S
$$





USA.gov is the U.S. government's official web portal to all federal, state and local government web resources and services.